Wind_Speed
29 29 29 28 27 25 24 23 22 19 17 15 13 12 10 9 8 7 6 6 5 5 4 4 4 4 4 4 4 4 3 3 3 3 4 4 4 5 6 7 7 9 10
31 30 30 30 29 28 26 25 24 22 20 18 16 14 12 11 10 9 8 7 7 6 5 5 5 5 5 5 5 5 5 5 4 4 4 5 5 5 6 7 8 9 10
32 31 31 30 30 29 29 27 26 25 23 21 19 17 15 13 12 10 10 9 8 8 7 7 7 6 6 6 6 6 6 6 6 5 5 6 6 6 7 7 8 9 10
33 33 32 32 31 31 30 29 28 27 25 23 21 19 18 16 14 12 11 11 10 9 9 8 8 7 7 7 7 7 7 7 7 7 7 7 7 7 8 8 9 10 11
35 34 34 33 32 32 31 30 30 29 27 26 23 22 20 18 16 15 13 13 12 11 10 10 9 9 8 8 8 8 8 8 8 8 8 8 8 9 9 9 10 11 12
37 36 35 34 34 34 33 32 31 31 30 28 26 24 23 21 19 17 16 15 14 13 12 12 11 11 10 9 9 9 9 9 9 9 9 9 10 10 10 10 11 11 12
40 38 37 36 36 35 35 33 33 32 31 30 29 27 25 23 21 20 18 17 16 15 14 13 13 12 11 11 11 10 10 10 10 11 11 11 11 11 11 12 12 13 13
42 40 39 38 37 37 36 35 34 33 33 32 31 30 28 26 24 22 20 19 17 16 15 15 14 14 13 13 12 12 12 12 12 12 12 12 12 12 13 13 13 14 15
45 43 41 40 39 39 38 37 36 35 34 34 33 32 30 28 27 25 22 20 19 18 17 16 16 15 15 14 14 14 14 13 13 13 13 13 14 14 14 14 15 15 16
47 45 44 42 41 40 40 39 39 37 36 35 35 34 32 31 29 27 25 23 21 20 19 18 17 17 17 16 15 15 15 15 15 15 15 15 15 15 15 16 16 17 17
49 48 47 45 44 42 41 41 41 40 38 37 36 36 35 33 32 30 28 25 23 22 21 20 19 19 18 18 17 16 16 16 16 16 16 16 16 17 17 17 18 18 19
51 50 49 48 46 45 43 43 42 42 41 39 38 38 37 35 34 32 30 28 26 24 22 21 21 21 20 20 19 18 18 18 18 18 18 18 18 18 19 19 19 20 20
52 51 51 50 49 47 46 44 44 44 43 41 40 40 39 37 36 35 33 30 28 27 25 24 23 22 22 22 21 20 20 19 19 19 19 19 19 20 20 20 21 21 21
52 52 52 51 50 49 47 46 46 46 45 44 42 42 41 40 38 36 35 33 31 29 28 27 25 24 24 24 23 22 22 21 21 21 21 21 21 21 22 22 22 22 22
53 53 52 52 51 49 47 47 48 48 47 46 45 44 43 42 41 39 37 35 33 31 30 29 28 26 26 26 25 24 23 23 22 22 22 22 23 23 23 23 23 23 23
53 53 53 53 52 52 50 49 48 48 49 48 46 46 45 44 42 41 40 38 36 34 33 32 30 29 27 27 26 26 25 25 24 24 24 24 24 25 25 25 25 25 25
52 52 52 53 52 52 51 51 50 51 52 51 48 47 47 46 45 43 42 41 38 36 35 33 32 31 29 28 28 27 27 26 25 25 25 26 26 26 26 27 27 27 27
51 51 51 52 52 52 52 51 51 51 52 52 50 49 49 48 47 46 44 42 41 39 37 35 34 33 32 31 30 30 29 29 28 27 28 28 28 28 28 28 29 29 29
48 49 50 52 54 53 52 50 51 52 53 53 52 51 50 49 48 47 46 44 43 41 39 38 37 36 34 33 32 31 31 31 30 30 29 29 29 29 30 30 31 31 31
47 47 48 50 52 53 53 53 54 53 54 54 53 52 51 51 49 49 48 46 45 43 42 40 39 38 37 36 35 34 34 33 33 32 32 31 31 31 32 32 33 32 32
44 46 48 50 50 50 52 54 54 55 54 55 55 53 52 52 51 49 49 48 47 45 43 43 42 41 39 38 38 37 37 36 35 34 34 34 34 34 34 34 34 34 34
40 43 45 48 48 48 48 50 52 54 55 55 56 54 53 53 52 51 50 50 49 47 46 45 44 43 42 42 41 41 40 38 37 37 36 36 36 36 36 36 36 36 35
37 39 41 43 44 45 46 48 50 51 53 55 56 55 55 54 55 54 52 51 50 49 47 46 46 45 44 45 44 43 42 41 40 39 38 38 38 38 38 38 38 37 37
33 36 39 40 40 40 42 45 46 48 48 51 53 54 54 54 55 54 53 52 52 51 49 48 48 47 47 47 47 46 46 44 44 42 41 41 40 40 40 39 40 39 39
29 32 34 36 38 38 39 43 45 46 48 50 51 53 54 54 55 55 54 53 52 51 50 49 49 49 48 48 48 47 47 47 46 45 43 43 42 42 41 41 41 41 40
26 30 31 31 33 35 37 39 43 45 45 47 49 49 51 52 53 54 54 54 53 53 53 52 50 50 49 49 49 49 49 48 47 47 46 46 45 44 44 43 43 42 42
Wind_Direction
243 243 243 242 242 241 239 238 237 235 232 231 231 234 238 241 246 251 257 264 267 271 271 275 277 279 275 270 268 267 273 281 286 288 291 302 316 326 336 345 350 353 355
245 243 243 242 242 242 240 239 238 237 235 234 233 235 237 240 245 249 251 256 260 263 266 268 269 271 272 268 266 267 271 275 282 287 289 293 303 313 323 333 339 343 346
244 243 242 241 241 242 241 240 239 238 237 236 235 236 237 239 243 247 249 251 255 258 261 266 266 266 268 267 264 266 268 272 276 282 286 289 296 304 313 321 328 333 337
242 242 240 240 240 240 241 240 239 238 237 237 237 237 238 239 241 244 247 248 251 255 259 262 264 264 265 265 264 266 267 270 273 276 282 287 291 298 305 312 319 326 331
241 241 240 239 239 238 239 240 239 238 237 238 238 238 239 239 241 243 245 247 248 252 256 258 261 261 262 263 264 265 267 269 272 273 278 284 288 293 299 306 313 319 324
240 240 240 238 238 238 238 239 239 238 237 238 238 239 239 240 240 242 244 246 247 249 253 255 258 259 259 260 261 265 267 269 271 273 276 282 286 289 295 302 307 313 319
240 239 239 239 238 237 237 237 238 238 238 238 238 238 239 240 240 241 243 245 246 248 251 253 256 257 258 259 259 263 266 268 271 272 275 280 284 287 293 299 303 309 314
239 239 238 238 238 237 236 236 236 237 238 238 238 238 239 239 240 240 242 244 245 247 250 252 254 255 256 259 260 262 265 268 271 273 275 279 282 286 291 296 301 306 310
238 238 238 237 238 238 237 236 236 236 237 237 237 238 239 239 239 240 241 243 245 246 248 251 253 254 255 258 260 262 264 267 270 272 274 278 281 285 290 295 299 303 307
238 238 238 238 238 238 238 237 236 235 237 237 237 237 238 239 240 240 241 243 244 246 248 250 252 253 255 257 259 261 263 266 269 271 274 278 281 284 288 293 297 301 304
237 238 238 238 238 238 238 237 236 236 236 236 237 237 238 239 240 240 240 242 244 246 248 250 252 253 254 256 257 260 264 266 268 271 274 277 279 283 287 291 295 299 303
236 237 237 237 238 239 239 237 236 235 236 236 237 237 237 238 239 240 240 241 243 245 248 250 252 254 254 255 256 259 262 265 267 270 273 276 279 282 285 289 293 297 301
235 236 237 237 237 238 239 238 236 235 235 235 236 237 237 237 239 240 240 241 242 245 247 249 251 253 254 254 255 258 261 263 266 269 272 275 277 280 284 287 291 296 299
234 234 235 236 237 237 238 238 236 235 234 235 236 237 237 237 238 239 240 241 242 244 246 248 250 252 254 255 256 258 260 263 266 268 271 274 276 279 282 286 290 293 296
234 234 235 235 235 235 237 237 236 234 234 235 235 236 236 237 238 238 239 241 242 244 246 248 250 252 254 256 257 258 260 262 264 267 270 273 275 277 280 284 287 291 293
234 233 234 234 233 234 235 234 233 233 234 234 234 235 236 237 238 238 239 241 242 244 246 248 251 252 254 256 257 258 260 262 264 266 269 272 274 276 279 282 286 289 291
234 234 234 235 235 234 233 233 233 233 233 233 233 234 236 237 238 239 239 240 241 243 245 248 251 252 253 256 257 258 259 262 265 266 269 271 273 275 278 282 285 287 290
233 232 233 234 233 233 233 233 233 232 232 232 233 234 236 236 237 238 239 240 241 242 244 247 249 251 253 254 257 258 258 260 263 264 267 270 272 274 277 280 283 286 288
233 231 233 233 233 233 233 234 233 233 232 233 233 234 235 235 235 237 237 239 241 243 244 246 249 251 252 254 255 257 258 260 262 264 267 269 271 273 277 280 282 284 286
233 232 233 234 233 232 234 235 234 234 232 232 233 233 233 234 235 236 237 238 240 243 243 245 247 250 252 253 254 256 258 259 261 264 266 267 270 272 275 278 281 283 284
235 236 234 233 233 233 233 234 235 235 234 233 233 232 232 232 234 235 237 238 240 242 244 245 248 250 252 253 255 257 258 259 262 263 265 267 269 272 274 276 279 281 283
236 235 234 235 234 233 233 234 234 235 234 233 233 233 233 233 234 235 237 237 238 240 243 246 248 250 252 253 255 256 258 259 261 263 265 267 270 272 273 276 277 279 280
238 237 235 234 232 232 234 234 234 234 234 233 233 234 235 235 234 236 238 238 239 241 243 246 248 250 251 253 254 256 258 259 260 262 264 266 268 270 272 274 276 277 278
240 237 234 236 235 234 234 233 235 235 233 232 232 233 234 235 235 236 238 240 240 241 243 246 248 249 250 252 254 256 257 259 260 262 263 264 266 268 271 271 274 275 278
242 238 237 237 237 238 236 233 234 234 235 234 234 234 235 236 236 237 239 240 241 242 243 244 246 249 250 252 253 255 257 259 261 262 263 264 265 267 269 270 272 274 276
247 243 241 239 239 239 237 236 238 235 237 237 235 234 235 236 238 239 241 242 242 243 244 244 246 248 250 252 253 254 256 258 260 260 262 263 264 265 267 268 271 272 274
Height
5847 5850 5852 5855 5857 5859 5862 5864 5866 5867 5869 5870 5871 5872 5873 5874 5875 5876 5877 5878 5879 5879 5880 5880 5881 5881 5881 5882 5882 5883 5883 5883 5883 5883 5883 5883 5883 5882 5882 5881 5881 5880 5879
5843 5846 5848 5850 5853 5855 5858 5860 5862 5864 5866 5868 5869 5870 5871 5872 5873 5874 5875 5876 5877 5878 5879 5879 5880 5880 5881 5881 5881 5882 5882 5883 5883 5883 5883 5883 5882 5882 5882 5881 5880 5879 5878
5838 5841 5843 5846 5848 5851 5853 5856 5858 5861 5863 5865 5866 5868 5869 5870 5871 5872 5874 5875 5876 5877 5878 5878 5879 5879 5880 5880 5881 5881 5882 5882 5882 5882 5882 5882 5882 5882 5881 5880 5880 5879 5878
5832 5835 5838 5841 5843 5846 5849 5851 5854 5857 5859 5861 5863 5865 5866 5868 5869 5870 5872 5873 5874 5875 5876 5877 5877 5878 5879 5879 5880 5880 5880 5881 5881 5881 5881 5881 5881 5881 5880 5880 5879 5878 5877
5826 5829 5832 5835 5838 5841 5844 5847 5849 5852 5855 5857 5859 5862 5863 5865 5866 5868 5869 5871 5872 5873 5874 5875 5876 5876 5877 5878 5878 5879 5879 5880 5880 5880 5880 5880 5880 5879 5879 5878 5878 5877 5876
5820 5823 5826 5829 5832 5835 5838 5841 5844 5847 5850 5853 5855 5858 5860 5862 5864 5865 5867 5868 5870 5871 5872 5873 5874 5875 5876 5876 5877 5877 5878 5878 5878 5879 5879 5879 5879 5878 5878 5877 5877 5876 5875
5812 5816 5820 5823 5826 5829 5833 5836 5839 5842 5845 5848 5851 5853 5856 5858 5860 5862 5863 5865 5867 5868 5870 5871 5872 5873 5874 5874 5875 5875 5876 5876 5877 5877 5877 5877 5877 5877 5876 5876 5875 5874 5873
5804 5809 5813 5816 5820 5823 5826 5830 5833 5836 5840 5843 5846 5849 5851 5854 5856 5858 5860 5862 5864 5865 5867 5868 5869 5870 5871 5872 5873 5873 5874 5874 5875 5875 5875 5875 5875 5875 5875 5874 5873 5873 5872
5796 5801 5805 5809 5812 5816 5820 5824 5827 5831 5834 5837 5840 5844 5847 5850 5852 5854 5856 5858 5860 5862 5864 5865 5866 5868 5868 5869 5870 5871 5872 5872 5873 5873 5873 5873 5873 5873 5872 5872 5871 5871 5870
5787 5792 5797 5801 5805 5809 5813 5817 5821 5824 5828 5831 5835 5838 5842 5845 5848 5850 5853 5855 5857 5858 5860 5862 5863 5864 5866 5867 5867 5868 5869 5870 5870 5871 5871 5871 5871 5870 5870 5870 5869 5868 5867
5778 5783 5789 5793 5798 5802 5806 5810 5814 5818 5821 5825 5829 5832 5836 5839 5842 5845 5848 5850 5853 5855 5856 5858 5859 5861 5862 5863 5864 5865 5866 5867 5867 5868 5868 5868 5868 5868 5867 5867 5866 5866 5865
5768 5774 5779 5785 5789 5794 5798 5802 5807 5811 5814 5818 5822 5826 5830 5833 5837 5840 5843 5846 5848 5850 5852 5854 5856 5857 5858 5859 5861 5862 5863 5863 5864 5864 5865 5865 5865 5865 5864 5864 5863 5863 5862
5757 5763 5769 5775 5780 5785 5789 5794 5799 5803 5807 5811 5815 5819 5823 5827 5831 5834 5838 5841 5843 5846 5848 5850 5851 5853 5854 5855 5857 5858 5859 5859 5860 5861 5861 5861 5861 5861 5861 5861 5860 5859 5858
5746 5753 5759 5764 5770 5776 5780 5785 5790 5795 5799 5804 5808 5812 5816 5821 5825 5828 5832 5835 5838 5840 5843 5845 5847 5848 5850 5851 5852 5853 5854 5855 5856 5857 5857 5857 5857 5857 5857 5857 5856 5856 5855
5735 5742 5748 5754 5760 5766 5771 5776 5781 5786 5791 5796 5801 5805 5809 5814 5818 5822 5825 5829 5832 5835 5837 5839 5841 5843 5845 5846 5847 5849 5850 5851 5851 5852 5853 5853 5853 5853 5853 5853 5852 5851 5851
5724 5731 5737 5743 5750 5755 5761 5766 5771 5777 5782 5787 5792 5797 5801 5806 5811 5815 5818 5822 5825 5828 5831 5833 5836 5838 5839 5841 5842 5844 5845 5846 5847 5848 5848 5849 5849 5849 5848 5848 5848 5847 5846
5714 5720 5726 5732 5739 5745 5750 5756 5762 5767 5772 5778 5783 5788 5793 5798 5803 5807 5811 5815 5818 5821 5824 5827 5829 5832 5834 5836 5837 5838 5840 5841 5842 5843 5843 5843 5844 5844 5843 5843 5843 5842 5841
5704 5709 5716 5721 5727 5734 5740 5746 5752 5758 5763 5768 5774 5779 5784 5789 5794 5798 5803 5807 5810 5814 5817 5820 5823 5825 5828 5829 5831 5832 5834 5835 5836 5837 5837 5838 5838 5838 5838 5838 5837 5837 5836
5693 5699 5705 5711 5717 5723 5729 5735 5742 5748 5753 5758 5764 5769 5774 5780 5785 5790 5795 5799 5802 5806 5809 5812 5815 5818 5821 5823 5824 5826 5827 5829 5830 5830 5831 5832 5832 5832 5832 5832 5832 5831 5830
5683 5689 5695 5701 5707 5712 5718 5725 5731 5737 5742 5748 5754 5760 5765 5770 5775 5781 5785 5790 5794 5798 5801 5804 5808 5810 5813 5815 5817 5819 5821 5822 5823 5824 5825 5825 5826 5826 5826 5826 5825 5825 5824
5674 5680 5685 5691 5696 5702 5707 5714 5720 5727 5733 5739 5745 5750 5756 5761 5766 5771 5776 5780 5785 5789 5793 5796 5799 5802 5805 5807 5809 5811 5813 5815 5816 5817 5818 5818 5819 5819 5819 5819 5818 5818 5817
5666 5670 5675 5681 5686 5691 5697 5703 5709 5715 5722 5728 5734 5740 5745 5751 5756 5761 5766 5771 5776 5780 5783 5787 5790 5793 5796 5798 5801 5802 5805 5807 5808 5809 5810 5811 5811 5811 5811 5811 5811 5810 5809
5658 5661 5666 5671 5677 5682 5687 5692 5697 5703 5710 5716 5723 5729 5735 5740 5746 5752 5757 5762 5766 5770 5774 5778 5781 5784 5786 5788 5790 5793 5795 5798 5800 5801 5802 5802 5802 5803 5803 5803 5803 5802 5801
5651 5654 5658 5663 5668 5673 5678 5683 5688 5693 5700 5706 5713 5719 5724 5729 5735 5741 5746 5751 5756 5760 5764 5767 5770 5773 5776 5778 5780 5783 5786 5787 5789 5791 5793 5793 5793 5794 5794 5794 5794 5793 5793
5644 5648 5652 5656 5661 5665 5670 5674 5679 5684 5691 5696 5702 5708 5713 5719 5724 5730 5735 5740 5745 5749 5753 5756 5759 5762 5765 5768 5770 5772 5774 5776 5778 5780 5782 5783 5783 5784 5784 5784 5784 5784 5784
5638 5641 5645 5649 5654 5658 5662 5666 5670 5675 5681 5686 5691 5697 5703 5708 5713 5718 5723 5728 5733 5737 5742 5745 5748 5751 5754 5757 5759 5761 5763 5765 5767 5768 5770 5771 5772 5773 5774 5774 5774 5774 5774